Regional Weather Roundup
Issued by NWS Albany, NY

Home | Current Version | Previous Version | Text Only | Print | Product List | Glossary On
Versions: 1 2 3 4 5 6 7 8 9 10 11 12 13 14 15 16 17 18 19 20 21 22 23 24 25 26 27
000
ASUS41 KALY 252110
RWRALY

NEW YORK STATE HOURLY WEATHER ROUNDUP
NATIONAL WEATHER SERVICE ALBANY NY
500 PM EDT MON JUL 25 2016

NOTE: "FAIR" INDICATES FEW OR NO CLOUDS BELOW 12,000 FEET WITH NO
SIGNIFICANT WEATHER AND/OR NO OBSTRUCTIONS TO VISIBILITY.

NYZ032-033-038>043-046>054-057>066-NYZ062>081-082-084-252200-
EAST


CITY           SKY/WX    TMP DP  RH WIND       PRES   REMARKS
ALBANY         PTSUNNY   83  70  64 W8        29.83R
GLENS FALLS    PTSUNNY   83  69  62 SW7       29.81S
POUGHKEEPSIE   CLOUDY    82  73  74 S3        29.83S
NEWBURGH       MOSUNNY   81  75  83 W6        29.86S
MONTGOMERY     RAIN      80  73  79 SW5       29.85S
WHITE PLAINS   CLOUDY    80  75  84 E6        29.86F
ISLIP          TSTM      79  75  87 SW8       29.87R FOG
NEW YORK CITY  CLOUDY    82  72  71 NE13      29.83R THUNDER
CENTRAL PARK   PTSUNNY   79  77  94 VRB5      29.87F FOG
$$

NYZ005>009-017-018-044>046-055-056-252200-
CENTRAL


CITY           SKY/WX    TMP DP  RH WIND       PRES   REMARKS
FULTON         CLOUDY    80  71  74 SW8       29.82S
SYRACUSE       CLOUDY    76  71  85 SW9       29.82F
ROME           LGT RAIN  76  74  93 NW8       29.84F
ELMIRA         CLOUDY    73  69  87 CALM      29.89F FOG
BINGHAMTON     LGT RAIN  68  66  93 SE10      29.91F
MONTICELLO     CLOUDY    73  72  94 NW12      29.95R THUNDER
$$

NYZ026>034-041>043-087-252200-
NORTH


CITY           SKY/WX    TMP DP  RH WIND       PRES   REMARKS
WATERTOWN      CLOUDY    78  70  76 SW14      29.79F
FORT DRUM      NOT AVBL
MASSENA        CLOUDY    77  69  76 SW15G22   29.77S
SARANAC LAKE   CLOUDY    73  65  75 W8        29.84F
PLATTSBURGH    CLOUDY    76  71  85 S5        29.76F
$$

NYZ001>004-010>016-019>021-085-252200-
WEST


CITY           SKY/WX    TMP DP  RH WIND       PRES   REMARKS
NIAGARA FALLS  TSTM      82  74  76 W6G21     29.82F
BUFFALO        PTSUNNY   80  72  76 SW17G26   29.84F
DUNKIRK        MOSUNNY   81  73  76 SW13G25   29.88F
JAMESTOWN      MOSUNNY   79  68  69 W13       29.94S
WELLSVILLE     PTSUNNY   78  69  73 VRB5      29.96F
ROCHESTER      PTSUNNY   82  74  76 W13       29.83F
PENN YAN       CLOUDY    77  72  84 S9        29.87R
$$

             KEY
       WCI = WIND CHILL INDEX
       VSB = VISIBILITY
       HX  = HEAT INDEX
$$




USA.gov is the U.S. government's official web portal to all federal, state and local government web resources and services.